| time (UTC) | temp F | wind direction | speed knots | gust knots | rain 1hr in | rain 24hr in | rain mn in | humidity % | barometer mb |
| 20260507011119 | 44 | 328 | 2.6 | 3.5 | 0.00 | 0.39 | 0.39 | 91 | 1010.8 |
| 20260507010614 | 44 | 327 | 1.7 | 6.1 | 0.00 | 0.39 | 0.39 | 91 | 1010.8 |
| 20260507010110 | 44 | 294 | 1.7 | 2.6 | 0.00 | 0.39 | 0.39 | 92 | 1010.9 |
| 20260507005608 | 44 | 352 | 1.7 | 5.2 | 0.00 | 0.39 | 0.39 | 92 | 1010.9 |
| 20260507005104 | 44 | 295 | 2.6 | 8.7 | 0.00 | 0.39 | 0.39 | 93 | 1011.1 |
| 20260507004601 | 44 | 300 | 3.5 | 7.8 | 0.00 | 0.39 | 0.39 | 93 | 1011.0 |
| 20260507004058 | 44 | 13 | 0.9 | 7.0 | 0.00 | 0.39 | 0.39 | 93 | 1010.7 |
| 20260507003554 | 44 | 347 | 3.5 | 4.3 | 0.00 | 0.39 | 0.39 | 94 | 1010.6 |
| 20260507003049 | 44 | 45 | 0.0 | 5.2 | 0.00 | 0.39 | 0.39 | 94 | 1010.6 |
| 20260507002546 | 44 | 351 | 0.0 | 3.5 | 0.00 | 0.39 | 0.39 | 94 | 1010.3 |
| 20260507002042 | 44 | 153 | 0.0 | 1.7 | 0.00 | 0.39 | 0.39 | 94 | 1010.3 |
| 20260507001539 | 44 | 85 | 1.7 | 1.7 | 0.00 | 0.39 | 0.39 | 94 | 1010.2 |
| 20260507001037 | 44 | 108 | 0.0 | 1.7 | 0.00 | 0.39 | 0.39 | 94 | 1010.0 |
| 20260507000532 | 44 | 130 | 0.9 | 1.7 | 0.00 | 0.39 | 0.39 | 94 | 1009.9 |
| 20260507000028 | 44 | 61 | 0.9 | 4.3 | 0.00 | 0.39 | 0.39 | 94 | 1009.6 |
| 20260506235526 | 44 | 303 | 1.7 | 4.3 | 0.00 | 0.39 | 0.39 | 94 | 1009.8 |
| 20260506235021 | 44 | 310 | 0.0 | 4.3 | 0.00 | 0.39 | 0.39 | 94 | 1009.9 |
| 20260506234519 | 44 | 299 | 2.6 | 5.2 | 0.00 | 0.39 | 0.39 | 94 | 1009.7 |
| 20260506234016 | 45 | 312 | 0.0 | 3.5 | 0.00 | 0.39 | 0.39 | 94 | 1009.7 |
| 20260506233512 | 45 | 308 | 4.3 | 12.2 | 0.00 | 0.39 | 0.39 | 94 | 1010.0 |
| 20260506233010 | 45 | 317 | 2.6 | 7.0 | 0.00 | 0.39 | 0.39 | 94 | 1009.8 |
| 20260506232506 | 45 | 341 | 4.3 | 10.4 | 0.00 | 0.39 | 0.39 | 94 | 1009.8 |
| 20260506232001 | 45 | 318 | 5.2 | 8.7 | 0.00 | 0.39 | 0.39 | 94 | 1009.8 |
| 20260506231459 | 45 | 247 | 1.7 | 6.1 | 0.02 | 0.39 | 0.39 | 94 | 1009.8 |
| 20260506230956 | 45 | 317 | 6.1 | 7.8 | 0.02 | 0.39 | 0.39 | 94 | 1009.7 |
| 20260506230452 | 45 | 338 | 2.6 | 12.2 | 0.00 | 0.38 | 0.38 | 94 | 1009.6 |
| 20260506225949 | 45 | 300 | 4.3 | 9.6 | 0.00 | 0.38 | 0.38 | 94 | 1009.5 |
| 20260506225447 | 45 | 312 | 7.8 | 13.0 | 0.00 | 0.38 | 0.38 | 94 | 1009.7 |
| 20260506224943 | 45 | 290 | 0.0 | 7.0 | 0.00 | 0.38 | 0.38 | 94 | 1009.6 |
| 20260506224440 | 45 | 316 | 7.0 | 8.7 | 0.00 | 0.38 | 0.38 | 94 | 1009.3 |
| 20260506223937 | 45 | 306 | 4.3 | 7.0 | 0.00 | 0.38 | 0.38 | 94 | 1009.4 |
| 20260506223432 | 45 | 317 | 0.0 | 6.1 | 0.00 | 0.38 | 0.38 | 94 | 1009.3 |
| 20260506222930 | 45 | 315 | 5.2 | 11.3 | 0.00 | 0.38 | 0.38 | 94 | 1009.5 |
| 20260506222426 | 46 | 313 | 5.2 | 8.7 | 0.00 | 0.38 | 0.38 | 94 | 1009.4 |
| 20260506221923 | 46 | 319 | 5.2 | 7.8 | 0.00 | 0.38 | 0.38 | 94 | 1009.2 |
| 20260506221420 | 46 | 348 | 5.2 | 8.7 | 0.00 | 0.38 | 0.38 | 94 | 1009.0 |
| 20260506220918 | 46 | 318 | 8.7 | 11.3 | 0.00 | 0.38 | 0.38 | 94 | 1008.9 |
| 20260506220413 | 46 | 336 | 7.0 | 14.8 | 0.00 | 0.38 | 0.38 | 94 | 1008.9 |
| 20260506215910 | 46 | 315 | 5.2 | 13.9 | 0.00 | 0.38 | 0.38 | 94 | 1008.9 |
| 20260506215407 | 46 | 320 | 4.3 | 6.1 | 0.00 | 0.38 | 0.38 | 94 | 1008.8 |
| 20260506214902 | 46 | 305 | 2.6 | 8.7 | 0.00 | 0.38 | 0.38 | 94 | 1008.9 |
| 20260506214359 | 46 | 282 | 3.5 | 11.3 | 0.00 | 0.38 | 0.38 | 94 | 1008.8 |
| 20260506213857 | 46 | 274 | 3.5 | 11.3 | 0.00 | 0.38 | 0.38 | 94 | 1008.8 |
| 20260506213354 | 46 | 318 | 8.7 | 9.6 | 0.02 | 0.38 | 0.38 | 94 | 1008.8 |
| 20260506212852 | 46 | 323 | 3.5 | 10.4 | 0.02 | 0.38 | 0.38 | 94 | 1008.5 |
| 20260506212347 | 46 | 316 | 4.3 | 11.3 | 0.00 | 0.38 | 0.38 | 94 | 1008.6 |
| 20260506211842 | 46 | 291 | 4.3 | 7.8 | 0.00 | 0.38 | 0.38 | 94 | 1008.3 |
| 20260506211339 | 46 | 322 | 4.3 | 5.2 | 0.00 | 0.38 | 0.38 | 94 | 1008.2 |
| 20260506210836 | 46 | 274 | 2.6 | 9.6 | 0.00 | 0.38 | 0.38 | 94 | 1008.2 |
| 20260506210333 | 46 | 313 | 4.3 | 9.6 | 0.00 | 0.38 | 0.38 | 94 | 1008.0 |
| 20260506205830 | 46 | 340 | 6.1 | 7.0 | 0.00 | 0.38 | 0.38 | 94 | 1008.0 |
| 20260506205326 | 46 | 325 | 7.0 | 11.3 | 0.00 | 0.38 | 0.38 | 94 | 1008.0 |
| 20260506204822 | 46 | 302 | 6.1 | 8.7 | 0.00 | 0.38 | 0.38 | 94 | 1007.9 |
| 20260506204320 | 47 | 236 | 0.9 | 7.0 | 0.00 | 0.38 | 0.38 | 94 | 1007.8 |
| 20260506203818 | 47 | 305 | 4.3 | 9.6 | 0.00 | 0.38 | 0.38 | 94 | 1007.9 |
| 20260506203315 | 47 | 306 | 5.2 | 7.8 | 0.02 | 0.38 | 0.38 | 94 | 1007.9 |
| 20260506202812 | 47 | 320 | 3.5 | 7.8 | 0.02 | 0.38 | 0.38 | 94 | 1008.0 |
| 20260506202309 | 47 | 299 | 3.5 | 9.6 | 0.02 | 0.37 | 0.37 | 94 | 1007.7 |
| 20260506201805 | 47 | 328 | 4.3 | 7.0 | 0.07 | 0.37 | 0.37 | 94 | 1007.8 |
| 20260506201302 | 47 | 281 | 3.5 | 5.2 | 0.07 | 0.37 | 0.37 | 94 | 1007.6 |
| 20260506200759 | 47 | 315 | 6.1 | 7.8 | 0.05 | 0.36 | 0.36 | 94 | 1007.7 |
| 20260506200255 | 47 | 334 | 2.6 | 8.7 | 0.05 | 0.36 | 0.36 | 94 | 1007.8 |
| 20260506195752 | 47 | 318 | 2.6 | 5.2 | 0.02 | 0.35 | 0.35 | 94 | 1007.8 |
| 20260506195248 | 47 | 323 | 2.6 | 6.1 | 0.02 | 0.35 | 0.35 | 94 | 1007.6 |
| 20260506194746 | 47 | 302 | 4.3 | 7.0 | 0.02 | 0.35 | 0.35 | 94 | 1007.7 |
| 20260506194242 | 47 | 273 | 1.7 | 4.3 | 0.02 | 0.35 | 0.35 | 94 | 1007.9 |
| 20260506193740 | 47 | 327 | 3.5 | 7.8 | 0.02 | 0.34 | 0.34 | 94 | 1007.8 |
| 20260506193236 | 47 | 269 | 1.7 | 2.6 | 0.02 | 0.34 | 0.34 | 94 | 1007.7 |
| 20260506192733 | 47 | 348 | 1.7 | 2.6 | 0.02 | 0.34 | 0.34 | 94 | 1007.8 |
| 20260506192230 | 47 | 327 | 1.7 | 5.2 | 0.02 | 0.34 | 0.34 | 94 | 1007.6 |
| 20260506191727 | 46 | 282 | 2.6 | 9.6 | 0.00 | 0.34 | 0.34 | 94 | 1007.6 |
| 20260506191223 | 46 | 318 | 4.3 | 7.0 | 0.00 | 0.34 | 0.34 | 94 | 1007.5 |
| 20260506190720 | 46 | 316 | 4.3 | 7.0 | 0.02 | 0.34 | 0.34 | 94 | 1007.4 |
| 20260506190217 | 46 | 327 | 1.7 | 7.8 | 0.02 | 0.34 | 0.34 | 94 | 1007.4 |
| 20260506185714 | 46 | 332 | 0.9 | 7.8 | 0.02 | 0.33 | 0.33 | 94 | 1007.5 |
| 20260506185210 | 46 | 329 | 3.5 | 6.1 | 0.02 | 0.33 | 0.33 | 94 | 1007.2 |
| 20260506184708 | 46 | 325 | 2.6 | 6.1 | 0.02 | 0.33 | 0.33 | 94 | 1007.4 |
| 20260506184205 | 46 | 293 | 3.5 | 7.0 | 0.02 | 0.33 | 0.33 | 94 | 1007.3 |
| 20260506183701 | 46 | 352 | 1.7 | 7.0 | 0.02 | 0.32 | 0.32 | 94 | 1007.1 |
| 20260506183157 | 46 | 341 | 1.7 | 6.1 | 0.02 | 0.32 | 0.32 | 94 | 1007.1 |
| 20260506182655 | 46 | 313 | 2.6 | 3.5 | 0.00 | 0.32 | 0.32 | 94 | 1007.4 |
| 20260506182151 | 46 | 60 | 0.9 | 3.5 | 0.02 | 0.32 | 0.32 | 94 | 1007.0 |
| 20260506181644 | 46 | 307 | 3.5 | 6.1 | 0.02 | 0.32 | 0.32 | 94 | 1006.8 |
| 20260506181141 | 46 | 342 | 1.7 | 4.3 | 0.02 | 0.32 | 0.32 | 94 | 1007.0 |
| 20260506180638 | 46 | 356 | 1.7 | 4.3 | 0.02 | 0.32 | 0.32 | 94 | 1007.1 |
| 20260506180134 | 46 | 319 | 2.6 | 3.5 | 0.00 | 0.31 | 0.31 | 94 | 1007.1 |
| 20260506175630 | 46 | 23 | 0.0 | 1.7 | 0.05 | 0.31 | 0.31 | 94 | 1007.2 |
| 20260506175126 | 46 | 4 | 0.0 | 5.2 | 0.05 | 0.31 | 0.31 | 94 | 1007.1 |
| 20260506174620 | 46 | 304 | 4.3 | 7.0 | 0.00 | 0.30 | 0.30 | 94 | 1007.1 |
| 20260506174116 | 45 | 359 | 0.0 | 5.2 | 0.00 | 0.30 | 0.30 | 94 | 1006.9 |
| 20260506173614 | 46 | 249 | 0.0 | 3.5 | 0.00 | 0.30 | 0.30 | 94 | 1006.8 |
| 20260506173110 | 46 | 330 | 0.0 | 2.6 | 0.02 | 0.30 | 0.30 | 94 | 1007.0 |
| 20260506172608 | 45 | 327 | 0.9 | 3.5 | 0.02 | 0.30 | 0.30 | 94 | 1007.0 |
| 20260506172103 | 46 | 321 | 3.5 | 5.2 | 0.00 | 0.30 | 0.30 | 94 | 1006.9 |
| 20260506171601 | 45 | 335 | 0.9 | 1.7 | 0.00 | 0.30 | 0.30 | 94 | 1006.9 |
| 20260506171059 | 45 | 302 | 1.7 | 5.2 | 0.02 | 0.30 | 0.30 | 94 | 1007.1 |
| 20260506170555 | 45 | 309 | 2.6 | 5.2 | 0.02 | 0.30 | 0.30 | 94 | 1007.0 |
| 20260506170047 | 45 | 277 | 1.7 | 7.8 | 0.00 | 0.29 | 0.29 | 94 | 1006.9 |
| 20260506165546 | 45 | 330 | 1.7 | 5.2 | 0.02 | 0.29 | 0.29 | 94 | 1007.0 |
| 20260506165042 | 45 | 20 | 0.0 | 1.7 | 0.02 | 0.29 | 0.29 | 94 | 1007.1 |
| 20260506164539 | 45 | 331 | 0.9 | 3.5 | 0.02 | 0.29 | 0.29 | 94 | 1007.1 |
| 20260506164036 | 45 | 324 | 0.9 | 4.3 | 0.02 | 0.29 | 0.29 | 94 | 1007.1 |
| 20260506163532 | 45 | 324 | 2.6 | 3.5 | 0.00 | 0.29 | 0.29 | 94 | 1007.2 |
| 20260506163027 | 45 | 307 | 4.3 | 7.8 | 0.00 | 0.29 | 0.29 | 94 | 1007.5 |
| 20260506162523 | 45 | 349 | 0.9 | 2.6 | 0.02 | 0.29 | 0.29 | 94 | 1007.4 |
| 20260506162015 | 45 | 292 | 2.6 | 3.5 | 0.02 | 0.29 | 0.29 | 94 | 1007.2 |
| 20260506161512 | 45 | 293 | 1.7 | 2.6 | 0.00 | 0.28 | 0.28 | 94 | 1007.1 |
| 20260506161009 | 45 | 316 | 1.7 | 4.3 | 0.00 | 0.28 | 0.28 | 94 | 1007.4 |
| 20260506160507 | 45 | 311 | 2.6 | 3.5 | 0.00 | 0.28 | 0.28 | 94 | 1007.5 |
| 20260506160004 | 45 | 296 | 0.0 | 2.6 | 0.00 | 0.28 | 0.28 | 94 | 1007.6 |
| 20260506155503 | 45 | 338 | 2.6 | 4.3 | 0.02 | 0.28 | 0.28 | 94 | 1007.5 |
| 20260506153634 | 45 | 322 | 0.0 | 1.7 | 0.00 | 0.28 | 0.28 | 94 | 1007.2 |
| 20260506153131 | 45 | 327 | 0.0 | 1.7 | 0.00 | 0.28 | 0.28 | 94 | 1007.3 |
| 20260506152628 | 45 | 303 | 2.6 | 3.5 | 0.00 | 0.28 | 0.28 | 94 | 1007.2 |
| 20260506152126 | 45 | 285 | 1.7 | 3.5 | 0.02 | 0.28 | 0.28 | 94 | 1007.2 |
| 20260506151624 | 45 | 325 | 4.3 | 6.1 | 0.00 | 0.28 | 0.28 | 94 | 1007.4 |
| 20260506151121 | 45 | 316 | 0.0 | 2.6 | 0.00 | 0.28 | 0.28 | 94 | 1007.4 |
| 20260506150617 | 45 | 315 | 0.0 | 6.1 | 0.00 | 0.28 | 0.28 | 94 | 1007.4 |
| 20260506150114 | 45 | 356 | 0.9 | 4.3 | 0.02 | 0.28 | 0.28 | 94 | 1007.2 |
| 20260506145611 | 45 | 41 | 0.0 | 3.5 | 0.02 | 0.28 | 0.28 | 94 | 1007.1 |
| 20260506145108 | 45 | 355 | 0.9 | 4.3 | 0.00 | 0.27 | 0.27 | 94 | 1007.1 |
| 20260506144605 | 45 | 336 | 1.7 | 4.3 | 0.00 | 0.27 | 0.27 | 94 | 1007.3 |
| 20260506144102 | 45 | 336 | 1.7 | 7.0 | 0.02 | 0.27 | 0.27 | 94 | 1007.2 |
| 20260506143600 | 45 | 336 | 0.0 | 5.2 | 0.05 | 0.27 | 0.27 | 94 | 1007.1 |
| 20260506143058 | 45 | 12 | 1.7 | 5.2 | 0.05 | 0.27 | 0.27 | 94 | 1007.2 |
| 20260506142555 | 45 | 332 | 0.9 | 2.6 | 0.05 | 0.26 | 0.26 | 94 | 1007.2 |
| 20260506142053 | 45 | 250 | 0.9 | 2.6 | 0.05 | 0.26 | 0.26 | 94 | 1007.2 |
| 20260506141551 | 45 | 350 | 0.9 | 2.6 | 0.09 | 0.26 | 0.26 | 94 | 1007.0 |
| 20260506141049 | 45 | 305 | 1.7 | 2.6 | 0.12 | 0.25 | 0.25 | 94 | 1007.2 |
| 20260506140546 | 45 | 310 | 2.6 | 5.2 | 0.12 | 0.24 | 0.24 | 94 | 1007.3 |
| 20260506140044 | 46 | 318 | 1.7 | 2.6 | 0.12 | 0.23 | 0.23 | 94 | 1007.3 |
| 20260506135540 | 46 | 331 | 0.0 | 2.6 | 0.09 | 0.22 | 0.22 | 94 | 1007.2 |
| 20260506135036 | 46 | 290 | 1.7 | 4.3 | 0.14 | 0.21 | 0.21 | 94 | 1007.2 |
| 20260506134533 | 46 | 308 | 1.7 | 2.6 | 0.19 | 0.20 | 0.20 | 94 | 1007.3 |
| 20260506134029 | 46 | 317 | 1.7 | 2.6 | 0.14 | 0.18 | 0.18 | 94 | 1007.3 |
| 20260506133526 | 46 | 321 | 0.9 | 2.6 | 0.17 | 0.17 | 0.17 | 94 | 1007.1 |
| 20260506133023 | 46 | 303 | 3.5 | 4.3 | 0.14 | 0.15 | 0.15 | 94 | 1007.5 |
| 20260506132520 | 46 | 317 | 0.9 | 2.6 | 0.12 | 0.14 | 0.14 | 94 | 1007.2 |
| 20260506132018 | 46 | 336 | 0.0 | 1.7 | 0.09 | 0.13 | 0.13 | 94 | 1007.3 |
| 20260506131515 | 46 | 72 | 0.9 | 3.5 | 0.07 | 0.12 | 0.12 | 94 | 1007.0 |
| 20260506131011 | 46 | 1 | 1.7 | 2.6 | 0.02 | 0.11 | 0.11 | 94 | 1007.1 |
| 20260506130508 | 46 | 298 | 0.9 | 2.6 | 0.02 | 0.11 | 0.11 | 94 | 1007.1 |
| 20260506130006 | 46 | 324 | 0.0 | 3.5 | 0.05 | 0.11 | 0.11 | 94 | 1007.1 |
| 20260506125504 | 47 | 316 | 0.9 | 2.6 | 0.02 | 0.10 | 0.10 | 94 | 1007.0 |
| 20260506125001 | 46 | 98 | 1.7 | 1.7 | 0.05 | 0.10 | 0.10 | 94 | 1006.9 |
| 20260506124458 | 46 | 9 | 0.0 | 1.7 | 0.07 | 0.09 | 0.09 | 94 | 1006.7 |
| 20260506123956 | 46 | 339 | 0.0 | 2.6 | 0.05 | 0.09 | 0.09 | 94 | 1006.8 |
| 20260506123454 | 46 | 8 | 0.0 | 1.7 | 0.02 | 0.08 | 0.08 | 94 | 1007.1 |
| 20260506122951 | 46 | 325 | 1.7 | 2.6 | 0.02 | 0.08 | 0.08 | 94 | 1007.0 |
| 20260506122448 | 46 | 54 | 0.9 | 1.7 | 0.00 | 0.08 | 0.08 | 94 | 1007.1 |
| 20260506121946 | 46 | 299 | 1.7 | 1.7 | 0.00 | 0.08 | 0.08 | 94 | 1007.0 |
| 20260506121443 | 46 | 307 | 1.7 | 2.6 | 0.00 | 0.08 | 0.08 | 94 | 1006.9 |
| 20260506120940 | 46 | 125 | 0.0 | 2.6 | 0.00 | 0.08 | 0.08 | 94 | 1007.5 |
| 20260506120438 | 46 | 293 | 0.0 | 2.6 | 0.02 | 0.08 | 0.08 | 94 | 1007.4 |
| 20260506115935 | 46 | 340 | 0.0 | 1.7 | 0.02 | 0.08 | 0.08 | 94 | 1007.4 |
| 20260506115433 | 46 | 40 | 0.0 | 1.7 | 0.00 | 0.07 | 0.07 | 94 | 1007.4 |
| 20260506114931 | 46 | 349 | 0.0 | 0.9 | 0.02 | 0.07 | 0.07 | 94 | 1007.3 |
| 20260506114428 | 46 | 343 | 0.0 | 0.9 | 0.07 | 0.07 | 0.07 | 94 | 1007.5 |
| 20260506113926 | 46 | 243 | 0.0 | 2.6 | 0.09 | 0.07 | 0.07 | 94 | 1007.6 |
| 20260506113424 | 46 | 7 | 0.0 | 1.7 | 0.05 | 0.06 | 0.06 | 94 | 1007.8 |
| 20260506112921 | 46 | 125 | 0.0 | 1.7 | 0.05 | 0.06 | 0.06 | 94 | 1007.8 |
| 20260506112419 | 47 | 255 | 0.0 | 1.7 | 0.02 | 0.06 | 0.06 | 94 | 1007.8 |
| 20260506111915 | 46 | 130 | 0.0 | 1.7 | 0.00 | 0.05 | 0.05 | 94 | 1007.5 |
| 20260506111413 | 46 | 168 | 0.0 | 1.7 | 0.02 | 0.05 | 0.05 | 94 | 1007.7 |
| 20260506110910 | 46 | 119 | 0.0 | 1.7 | 0.02 | 0.05 | 0.05 | 94 | 1007.8 |
| 20260506110408 | 46 | 335 | 0.0 | 1.7 | 0.02 | 0.05 | 0.05 | 94 | 1007.7 |
| 20260506105904 | 46 | 338 | 0.9 | 3.5 | 0.02 | 0.05 | 0.05 | 94 | 1007.6 |
| 20260506105400 | 46 | 306 | 1.7 | 4.3 | 0.02 | 0.04 | 0.04 | 94 | 1008.0 |
| 20260506104858 | 46 | 315 | 2.6 | 6.1 | 0.02 | 0.04 | 0.04 | 94 | 1007.8 |
| 20260506104355 | 47 | 259 | 0.0 | 6.1 | 0.02 | 0.04 | 0.04 | 94 | 1008.0 |
| 20260506103853 | 47 | 306 | 2.6 | 6.1 | 0.00 | 0.04 | 0.04 | 94 | 1008.2 |
| 20260506103350 | 48 | 320 | 3.5 | 4.3 | 0.00 | 0.04 | 0.04 | 94 | 1007.9 |
| 20260506102847 | 48 | 321 | 0.0 | 1.7 | 0.00 | 0.04 | 0.04 | 94 | 1007.7 |
| 20260506102345 | 48 | 27 | 0.9 | 1.7 | 0.00 | 0.04 | 0.04 | 94 | 1007.8 |
| 20260506101842 | 48 | 49 | 0.9 | 1.7 | 0.02 | 0.04 | 0.04 | 94 | 1007.6 |
| 20260506101338 | 48 | 260 | 0.9 | 2.6 | 0.02 | 0.04 | 0.04 | 94 | 1007.5 |
| 20260506100836 | 48 | 72 | 3.5 | 4.3 | 0.00 | 0.03 | 0.03 | 94 | 1007.7 |
| 20260506100335 | 48 | 71 | 5.2 | 5.2 | 0.00 | 0.03 | 0.03 | 94 | 1007.4 |
| 20260506095833 | 48 | 55 | 2.6 | 2.6 | 0.02 | 0.03 | 0.03 | 94 | 1007.6 |
| 20260506095329 | 48 | 293 | 0.0 | 1.7 | 0.02 | 0.03 | 0.03 | 94 | 1007.5 |
| 20260506094826 | 48 | 316 | 0.0 | 2.6 | 0.02 | 0.03 | 0.03 | 94 | 1007.9 |
| 20260506094325 | 48 | 315 | 2.6 | 2.6 | 0.05 | 0.03 | 0.03 | 94 | 1008.0 |
| 20260506093823 | 48 | 81 | 0.0 | 0.9 | 0.02 | 0.02 | 0.02 | 94 | 1007.8 |
| 20260506093319 | 48 | 319 | 0.0 | 2.6 | 0.00 | 0.02 | 0.02 | 94 | 1007.9 |
| 20260506092818 | 48 | 61 | 0.0 | 1.7 | 0.02 | 0.02 | 0.02 | 94 | 1007.7 |
| 20260506092315 | 48 | 327 | 0.0 | 3.5 | 0.02 | 0.02 | 0.02 | 94 | 1007.7 |
| 20260506091812 | 48 | 323 | 1.7 | 2.6 | 0.02 | 0.02 | 0.02 | 94 | 1007.8 |
| 20260506091309 | 48 | 335 | 1.7 | 2.6 | 0.05 | 0.01 | 0.01 | 94 | 1007.9 |
| 20260506090807 | 48 | 22 | 1.7 | 2.6 | 0.05 | 0.01 | 0.01 | 94 | 1008.2 |
| 20260506090304 | 48 | 292 | 1.7 | 3.5 | 0.02 | 0.00 | 0.00 | 94 | 1008.6 |
| 20260506085800 | 48 | 0 | 0.0 | 2.6 | 0.02 | 0.00 | 0.00 | 94 | 1008.1 |
| 20260506085257 | 48 | 95 | 0.0 | 1.7 | 0.00 | 0.00 | 0.00 | 94 | 1007.9 |
| 20260506084754 | 48 | 81 | 0.0 | 0.9 | 0.00 | 0.00 | 0.00 | 94 | 1007.9 |
| 20260506084250 | 48 | 318 | 0.0 | 2.6 | 0.00 | 0.00 | 0.00 | 94 | 1007.8 |
| 20260506083747 | 48 | 342 | 0.0 | 1.7 | 0.00 | 0.00 | 0.00 | 94 | 1007.8 |
| 20260506083245 | 48 | 340 | 0.0 | 1.7 | 0.00 | 0.00 | 0.00 | 94 | 1007.8 |
| 20260506082742 | 48 | 336 | 0.9 | 1.7 | 0.00 | 0.00 | 0.00 | 94 | 1007.9 |
| 20260506082237 | 48 | 136 | 0.0 | 2.6 | 0.00 | 0.00 | 0.00 | 94 | 1007.7 |
| 20260506081735 | 48 | 69 | 0.0 | 0.9 | 0.00 | 0.00 | 0.00 | 94 | 1007.7 |
| 20260506081232 | 48 | 66 | 0.0 | 1.7 | 0.00 | 0.00 | 0.00 | 94 | 1007.9 |
| 20260506080731 | 48 | 1 | 0.0 | 1.7 | 0.00 | 0.00 | 0.00 | 94 | 1007.8 |
| 20260506080227 | 48 | 56 | 0.0 | 0.9 | 0.00 | 0.00 | 0.00 | 94 | 1007.8 |
| 20260506073211 | 48 | 137 | 0.0 | 1.7 | 0.00 | 0.00 | 0.00 | 94 | 1008.0 |
| 20260506072707 | 48 | 110 | 0.0 | 1.7 | 0.00 | 0.00 | 0.00 | 94 | 1007.9 |
| 20260506072205 | 48 | 111 | 2.6 | 3.5 | 0.00 | 0.00 | 0.00 | 94 | 1008.3 |
| 20260506071702 | 48 | 58 | 0.9 | 1.7 | 0.00 | 0.00 | 0.00 | 94 | 1009.3 |
| 20260506071200 | 48 | 306 | 2.6 | 4.3 | 0.00 | 0.00 | 0.00 | 94 | 1009.2 |
| 20260506070657 | 48 | 106 | 0.9 | 1.7 | 0.00 | 0.00 | 0.00 | 93 | 1008.3 |
| 20260506070154 | 48 | 119 | 0.9 | 1.7 | 0.00 | 0.00 | 0.00 | 93 | 1008.9 |
| 20260506062131 | 48 | 63 | 0.0 | 2.6 | 0.00 | 0.00 | 0.00 | 93 | 1009.0 |
| 20260506061627 | 48 | 69 | 0.0 | 1.7 | 0.00 | 0.00 | 0.00 | 93 | 1009.4 |
| 20260506061125 | 48 | 328 | 0.0 | 1.7 | 0.00 | 0.00 | 0.00 | 93 | 1009.4 |
| 20260506060623 | 48 | 99 | 0.9 | 2.6 | 0.00 | 0.00 | 0.00 | 93 | 1009.2 |
| 20260506060120 | 48 | 55 | 0.0 | 1.7 | 0.00 | 0.00 | 0.00 | 93 | 1009.5 |
| 20260506051051 | 48 | 148 | 0.0 | 1.7 | 0.00 | 0.00 | 0.00 | 92 | 1010.0 |
| 20260506050549 | 48 | 157 | 0.0 | 1.7 | 0.00 | 0.00 | 0.00 | 92 | 1010.0 |
| 20260506045040 | 49 | 337 | 1.7 | 2.6 | 0.00 | 0.00 | 0.00 | 92 | 1010.0 |
| 20260506044538 | 49 | 321 | 0.0 | 3.5 | 0.00 | 0.00 | 0.00 | 92 | 1010.2 |
| 20260506044034 | 49 | 70 | 0.0 | 1.7 | 0.00 | 0.00 | 0.00 | 92 | 1009.9 |
| 20260506043531 | 49 | 28 | 1.7 | 2.6 | 0.00 | 0.00 | 0.00 | 92 | 1010.2 |
| 20260506043030 | 49 | 355 | 1.7 | 2.6 | 0.00 | 0.00 | 0.00 | 92 | 1009.9 |
| 20260506042529 | 49 | 349 | 2.6 | 4.3 | 0.00 | 0.00 | 0.00 | 92 | 1010.0 |
| 20260506042026 | 49 | 117 | 0.9 | 2.6 | 0.00 | 0.00 | 0.00 | 92 | 1010.2 |
| 20260506041525 | 49 | 316 | 1.7 | 2.6 | 0.00 | 0.00 | 0.00 | 92 | 1010.2 |
| 20260506041021 | 49 | 11 | 1.7 | 4.3 | 0.00 | 0.00 | 0.00 | 91 | 1010.4 |
| 20260506040519 | 49 | 305 | 3.5 | 6.1 | 0.00 | 0.00 | 0.00 | 91 | 1010.5 |
| 20260506040015 | 50 | 19 | 0.9 | 5.2 | 0.00 | 0.28 | 0.28 | 91 | 1010.4 |
| 20260506035512 | 50 | 55 | 0.9 | 3.5 | 0.00 | 0.28 | 0.28 | 91 | 1010.3 |
| 20260506035008 | 50 | 313 | 1.7 | 4.3 | 0.02 | 0.28 | 0.28 | 91 | 1010.4 |
| 20260506034506 | 50 | 342 | 2.6 | 6.1 | 0.02 | 0.28 | 0.28 | 90 | 1010.1 |
| 20260506034003 | 50 | 44 | 0.9 | 3.5 | 0.00 | 0.28 | 0.28 | 90 | 1010.2 |
| 20260506033500 | 50 | 327 | 1.7 | 2.6 | 0.00 | 0.28 | 0.28 | 90 | 1010.3 |
| 20260506032956 | 51 | 300 | 0.9 | 3.5 | 0.00 | 0.28 | 0.28 | 89 | 1009.9 |
| 20260506032454 | 51 | 325 | 1.7 | 2.6 | 0.00 | 0.28 | 0.28 | 89 | 1010.0 |
| 20260506031950 | 51 | 44 | 0.0 | 4.3 | 0.00 | 0.28 | 0.28 | 89 | 1010.4 |
| 20260506031448 | 51 | 68 | 0.9 | 2.6 | 0.00 | 0.28 | 0.28 | 89 | 1009.8 |
| 20260506030946 | 51 | 338 | 4.3 | 7.0 | 0.00 | 0.28 | 0.28 | 89 | 1010.5 |
| 20260506030443 | 51 | 310 | 1.7 | 2.6 | 0.00 | 0.28 | 0.28 | 89 | 1010.5 |
| 20260506025940 | 51 | 100 | 0.9 | 3.5 | 0.00 | 0.28 | 0.28 | 89 | 1010.2 |
| 20260506025437 | 51 | 148 | 0.9 | 3.5 | 0.00 | 0.28 | 0.28 | 89 | 1010.3 |
| 20260506024933 | 52 | 110 | 0.9 | 3.5 | 0.00 | 0.28 | 0.28 | 89 | 1010.3 |
| 20260506024430 | 52 | 160 | 0.0 | 1.7 | 0.00 | 0.28 | 0.28 | 89 | 1009.8 |
| 20260506023926 | 52 | 150 | 0.0 | 1.7 | 0.00 | 0.28 | 0.28 | 89 | 1009.8 |
| 20260506023423 | 52 | 64 | 1.7 | 1.7 | 0.00 | 0.28 | 0.28 | 88 | 1009.8 |
| 20260506022920 | 52 | 332 | 1.7 | 5.2 | 0.00 | 0.28 | 0.28 | 88 | 1009.9 |
| 20260506022418 | 52 | 349 | 1.7 | 6.1 | 0.00 | 0.28 | 0.28 | 88 | 1009.7 |
| 20260506021915 | 52 | 316 | 1.7 | 5.2 | 0.00 | 0.28 | 0.28 | 90 | 1009.9 |
| 20260506021413 | 53 | 322 | 1.7 | 3.5 | 0.00 | 0.28 | 0.28 | 90 | 1009.8 |
| 20260506020909 | 53 | 303 | 1.7 | 4.3 | 0.00 | 0.28 | 0.28 | 92 | 1009.7 |
| 20260506020407 | 53 | 332 | 0.9 | 1.7 | 0.00 | 0.28 | 0.28 | 93 | 1009.7 |
| 20260506015904 | 53 | 288 | 1.7 | 2.6 | 0.00 | 0.28 | 0.28 | 93 | 1009.4 |
| 20260506015402 | 53 | 43 | 0.0 | 0.9 | 0.00 | 0.28 | 0.28 | 93 | 1009.4 |
| 20260506014858 | 54 | 28 | 0.0 | 0.9 | 0.00 | 0.28 | 0.28 | 93 | 1009.6 |
| 20260506014355 | 54 | 317 | 0.9 | 1.7 | 0.00 | 0.28 | 0.28 | 93 | 1009.5 |
| 20260506013852 | 54 | 177 | 0.9 | 1.7 | 0.00 | 0.28 | 0.28 | 93 | 1009.7 |
| 20260506013350 | 54 | 56 | 0.0 | 0.0 | 0.00 | 0.28 | 0.28 | 93 | 1009.4 |
| 20260506012845 | 54 | 170 | 0.0 | 0.9 | 0.00 | 0.28 | 0.28 | 93 | 1009.1 |
| 20260506012343 | 54 | 126 | 0.9 | 1.7 | 0.00 | 0.28 | 0.28 | 92 | 1009.4 |
| 20260506011840 | 54 | 152 | 1.7 | 1.7 | 0.00 | 0.28 | 0.28 | 92 | 1009.4 |
| 20260506011336 | 54 | 100 | 1.7 | 2.6 | 0.00 | 0.28 | 0.28 | 92 | 1009.3 |